sat.trackr.live / text

‹ back to catalog

SKYSAT-C10

NORAD 42988 · 2017-068B

PAYLOAD ACTIVE UNKNOWN

§ Identity

Operator
Country
US
Launch date
2017-10-31
Launch site
AFWTR
Launch vehicle
Mass (kg)
RCS (m²)

Purposes: earth_obs

External: N2YO · Heavens-Above · Gunter

§ Orbital elements

Epoch: 2026-09-19T08:02:08.045376Z

Period
93.74 min
Inclination
97.4631°
Eccentricity
0.0001353
Mean motion
15.36129779 rev/d
Perigee alt
456.6 km
Apogee alt
458.5 km
Semi-major
6,835.7 km
B*
1.9941e-4
RAAN
40.2791°
Arg perigee
87.4165°
Mean anomaly
272.7233°
Rev number
49,680

§ Raw data

SKYSAT-C101 42988U 17068B   26262.33481534  .00006936  00000+0  19941-3 0  99922 42988  97.4631  40.2791 0001353  87.4165 272.7233 15.36129779496802

JSON: /api/v1/satellites/42988 · /tle

For live sub-satellite position, see the globe view (requires WebGL).

§ Visibility from observer

Set your observer location to see the next 7 days of passes ≥ 10°. The values pass through the URL so the page stays shareable.

No JS? Fill the form by hand. The geolocation button needs JavaScript.